Flag for U.S.A. Weather past 2 weeks in Sandpoint, Idaho, U.S.A.

Now
72 °F

Sunny.


Feels Like: 76 °F
Forecast: 40 / 52 °F
Wind: No wind

Location: Sandpoint Airport

Current Time: Apr 21, 2015 at 5:24:11 PM

Latest Report: Apr 21, 2015 at 4:55 PM


Visibility: 10 mi

Pressure: 29.75 "Hg

Humidity: 29%

Dew point: 37 °F

Location of SandpointLocation

Historic Weather in Sandpoint — Graph

°F

Sandpoint temperature yesterday

Maximum temperature yesterday: 70 °F (at 5:15 PM)
Minimum temperature yesterday: 32 °F (at 5:35 AM)
Average temperature yesterday: 50 °F

Past Weeks' High & Low Weather Summary

 TemperatureHumidityPressure
High72 °F (Apr 21, 2:55 PM)100% (Apr 6, 3:15 PM)30.39 "Hg (Apr 6, 3:15 PM)
Low28 °F (Apr 15, 3:55 AM)16% (Apr 18, 6:35 PM)29.69 "Hg (Apr 11, 10:15 AM)
Average45 °F67%30.01 "Hg
* Reported Apr 6 3:15 PM — Apr 21 3:55 PM, Sandpoint, Weather by CustomWeather, © 2015

Note: Actual official high and low records may vary slightly from our data, if they occured in-between our weather recording intervals... More about our weather records

Advertising

Sandpoint weather history for previous 24 hours

 ConditionsComfort  
Time TempWeatherWind HumidityBarometerVisibility
3:55 PM
Tue, Apr 21
72 °FSunny.5 mph27%29.76 "Hg10 mi
3:35 PM70 °FSunny.7 mph33%29.77 "Hg10 mi
3:15 PM70 °FSunny.9 mph33%29.78 "Hg10 mi
2:55 PM72 °FSunny.8 mph33%29.78 "Hg10 mi
2:15 PM70 °FSunny.10 mph35%29.80 "Hg10 mi
1:55 PM70 °FSunny.8 mph35%29.80 "Hg10 mi
1:35 PM70 °FSunny.8 mph35%29.81 "Hg10 mi
1:15 PM64 °FSunny.7 mph43%29.81 "Hg10 mi
12:55 PM64 °FSunny.5 mph43%29.82 "Hg10 mi
12:35 PM64 °FSunny.5 mph43%29.83 "Hg10 mi
12:15 PM63 °FSunny.6 mph42%29.84 "Hg10 mi
11:55 AM63 °FSunny.6 mph42%29.84 "Hg10 mi
11:35 AM61 °FSunny.3 mph45%29.85 "Hg10 mi
11:15 AM61 °FSunny.3 mph45%29.86 "Hg10 mi
10:55 AM59 °FSunny.3 mph51%29.86 "Hg10 mi
10:35 AM57 °FSunny.3 mph55%29.86 "Hg10 mi
10:15 AM55 °FSunny.5 mph59%29.86 "Hg10 mi
9:55 AM55 °FSunny.3 mph59%29.87 "Hg10 mi
9:35 AM55 °FSunny.5 mph55%29.87 "Hg10 mi
9:15 AM55 °FSunny.7 mph55%29.87 "Hg10 mi
8:55 AM52 °FSunny.No wind62%29.87 "Hg10 mi
8:35 AM50 °FSunny.No wind67%29.88 "Hg10 mi
8:15 AM46 °FSunny.No wind71%29.88 "Hg10 mi
7:55 AM45 °FSunny.No wind76%29.88 "Hg10 mi
7:35 AM43 °FSunny.No wind87%29.88 "Hg10 mi
7:15 AM41 °FSunny.No wind93%29.88 "Hg10 mi
6:55 AM37 °FSunny.No wind100%29.88 "Hg10 mi
6:35 AM36 °FClear.No wind100%29.87 "Hg10 mi
6:15 AM36 °FClear.No wind100%29.87 "Hg10 mi
5:55 AM36 °FClear.No wind100%29.87 "Hg10 mi
5:35 AM36 °FClear.No wind100%29.86 "Hg10 mi
5:15 AM36 °FClear.No wind100%29.86 "Hg10 mi
4:55 AM36 °FClear.No wind100%29.86 "Hg10 mi
4:15 AM36 °FClear.No wind100%29.85 "Hg10 mi
3:55 AM36 °FClear.No wind100%29.85 "Hg10 mi
3:15 AM39 °FClear.No wind93%29.85 "Hg10 mi
2:55 AM37 °FClear.No wind93%29.84 "Hg10 mi
2:35 AM37 °FClear.No wind100%29.84 "Hg10 mi
2:15 AM37 °FClear.No wind100%29.84 "Hg10 mi
1:55 AM39 °FClear.No wind93%29.84 "Hg10 mi
1:35 AM41 °FClear.No wind87%29.84 "Hg10 mi
1:15 AM41 °FClear.No wind93%29.83 "Hg10 mi
12:55 AM41 °FClear.No wind93%29.83 "Hg10 mi
12:15 AM41 °FClear.No wind87%29.83 "Hg10 mi
11:55 PM
Mon, Apr 20
43 °FClear.No wind81%29.83 "Hg10 mi
11:35 PM43 °FClear.No wind81%29.83 "Hg10 mi
11:15 PM45 °FClear.No wind76%29.82 "Hg10 mi
10:55 PM45 °FClear.No wind76%29.82 "Hg10 mi
10:15 PM46 °FClear.No wind76%29.82 "Hg10 mi
9:55 PM48 °FClear.No wind71%29.82 "Hg10 mi
9:15 PM50 °FClear.No wind67%29.81 "Hg10 mi
8:15 PM55 °FSunny.No wind59%29.81 "Hg10 mi
7:55 PM57 °FSunny.No wind55%29.81 "Hg10 mi
7:35 PM59 °FSunny.No wind51%29.80 "Hg10 mi
7:15 PM63 °FSunny.No wind37%29.81 "Hg10 mi
6:55 PM68 °FSunny.No wind33%29.81 "Hg10 mi
6:35 PM68 °FSunny.No wind28%29.81 "Hg10 mi
6:15 PM70 °FSunny.5 mph29%29.81 "Hg10 mi
5:55 PM68 °FSunny.3 mph30%29.82 "Hg10 mi
5:35 PM70 °FSunny.5 mph27%29.82 "Hg10 mi
5:15 PM70 °FSunny.5 mph27%29.82 "Hg10 mi
Weather by CustomWeather, © 2015

See weather overviewHow to use our weather pages